User: anonymous   Login
Location: Pian di Sc�
(43.6333°N, 11.5500°E)
Time: 11:24:41
(UTC+00:00)
Language:

Timation 2 Rocket - Orbit

View from above orbital plane
View from above orbital plane
View from above satellite
View from above satellite

Ground track
Ground track

The orbit data is extracted from the following two-line orbital elements,

1  4159U 69082AB  20299.91995184 -.00000007 +00000-0 +44994-4 0  9994
2  4159 069.9604 150.9851 0115655 002.0965 358.0588 13.72447750555955
Epoch (UTC): 25 October 2020 22:04:43
Eccentricity: 0.0115655
inclination: 69.9604°
perigee height: 905 km
apogee height: 1076 km
right ascension of ascending node: 150.9851°
argument of perigee: 2.0965°
revolutions per day: 13.72447750
mean anomaly at epoch: 358.0588°
orbit number at epoch: 55595

The dashed part of the orbit path shows where the satellite is in the earth's shadow,  

DLR